[[{"header":{"parameterUnit":"m.s-1","parameterCategory":1,"la1":30.2991,"la2":30.254,"lo1":-89.0895,"lo2":-89.0444,"dy":0.0017,"dx":0.0017,"nx":28,"ny":28,"refTime":"2024-10-20T09:00:00:Z","depth":0,"parameterNumber":2,"parameterNumberName":"U-component_of_WINDS"},"data":[0,0,0,0,0,0,0,0,0,0,0,0,0,0,0,0,0,0,0,0,0,0,0,0,0,0,0,0,0,0,0,0,0,0,0,0,0,0,0,0,0,0,0,0,0,0,0,0,0,0,0,0,0,0,0,0,0,0,-1.7304,-1.7306,0,-1.7455,-1.7457,-1.7458,-1.7453,-1.7451,-1.7449,-1.7447,-1.76,-1.7606,-1.7612,0,0,0,0,0,0,0,0,0,0,0,0,0,-1.7012,-1.7017,-1.7304,-1.7306,-1.7308,-1.7455,-1.7457,-1.7459,-1.7453,-1.7451,-1.7448,-1.7446,-1.7598,-1.7605,-1.7613,0,0,0,0,0,0,0,0,0,0,0,0,0,-1.7148,-1.7019,-1.7303,-1.7323,-1.7326,-1.7454,-1.7457,-1.7459,-1.7454,-1.7451,-1.7447,-1.7445,-1.7596,-1.7605,-1.7614,-1.7733,0,0,-1.7641,-1.7645,0,0,0,0,0,0,0,0,-1.7141,-1.7159,-1.7318,-1.7322,-1.7325,-1.7432,-1.741,-1.7551,-1.7455,-1.7405,-1.7447,-1.7443,-1.7547,-1.756,-1.7595,-1.774,-1.7746,-1.7642,-1.7648,-1.7652,-1.7654,0,0,0,0,0,0,0,-1.7131,-1.7153,-1.7364,-1.732,-1.7325,-1.7324,-1.734,-1.7437,-1.7492,-1.7409,-1.7409,-1.7427,-1.7548,-1.7586,-1.7598,-1.7749,-1.7642,-1.765,-1.7656,-1.7659,-1.8003,-1.8007,0,0,0,0,0,0,-1.7118,-1.7145,-1.7359,-1.7368,-1.7223,-1.7332,-1.735,-1.7401,-1.7491,-1.7501,-1.743,-1.7426,-1.7572,-1.7588,-1.7604,-1.7752,-1.7651,-1.766,-1.7665,-1.8,-1.8004,-1.8008,0,0,0,0,0,0,-1.7111,-1.7137,-1.7353,-1.7257,-1.7284,-1.734,-1.7398,-1.7405,-1.7443,-1.7506,-1.7516,-1.7458,-1.757,-1.7591,-1.7702,-1.7757,-1.7664,-1.7672,-1.7995,-1.8001,-1.8006,-1.8048,0,0,0,0,0,0,-1.7103,-1.7135,-1.718,-1.7258,-1.7289,-1.7448,-1.7401,-1.7411,-1.7459,-1.7456,-1.7536,-1.7546,-1.7569,-1.7688,-1.7711,-1.7768,-1.7679,-1.7991,-1.7998,-1.8004,-1.8042,-1.8055,-1.8065,0,0,0,0,0,-1.7093,-1.7184,-1.7182,-1.7208,-1.7347,-1.7451,-1.7469,-1.7495,-1.7464,-1.751,-1.7551,-1.7543,-1.7747,-1.77,-1.7725,-1.7786,-1.7987,-1.7996,-1.8004,-1.8037,-1.8052,-1.8065,0,0,0,0,0,0,-1.711,-1.7195,-1.7193,-1.7313,-1.7375,-1.745,-1.7509,-1.7509,-1.7581,-1.7575,-1.7603,-1.7621,-1.7733,-1.777,-1.7716,-1.7908,-1.7863,-1.7877,-1.788,-1.7895,-1.7906,-1.7896,-1.7687,0,0,0,0,0,-1.7128,-1.7206,-1.7275,-1.7374,-1.7406,-1.7452,-1.7498,-1.7513,-1.7578,-1.7604,-1.7653,-1.7717,-1.7796,-1.7847,-1.7922,-1.8047,-1.8066,-1.8102,-1.8113,-1.8122,-1.8135,-1.8207,-1.8225,-1.8036,-1.8035,-1.8035,0,0,-1.7166,-1.7222,-1.7269,-1.7379,-1.7429,-1.751,-1.7474,-1.756,-1.7621,-1.7617,-1.7726,-1.7764,-1.7837,-1.7957,-1.8011,-1.7991,-1.8191,-1.8133,-1.814,-1.8147,-1.8218,-1.8236,-1.8252,-1.8041,-1.804,-1.8039,0,0,-1.7277,-1.7325,-1.7415,-1.7467,-1.7543,-1.7574,-1.7596,-1.7672,-1.7698,-1.7807,-1.7808,-1.788,-1.8014,-1.8067,-1.8112,-1.8247,-1.8243,-1.827,-1.8331,-1.8402,-1.8417,-1.843,-1.8482,-1.8499,-1.8282,-1.8282,-1.8282,0,-1.7314,-1.7435,-1.7461,-1.7549,-1.7599,-1.7601,-1.7693,-1.7742,-1.7839,-1.7874,-1.7849,-1.8021,-1.8069,-1.8203,-1.8237,-1.8271,-1.8299,-1.8262,-1.8412,-1.8426,-1.8439,-1.8489,-1.8507,-1.8285,-1.8285,-1.8284,-1.8284,0,-1.7479,-1.7564,-1.7627,-1.7723,-1.778,-1.7869,-1.791,-1.7964,-1.7974,-1.8008,-1.8122,-1.8181,-1.8271,-1.8303,-1.8313,-1.844,-1.8425,-1.8406,-1.8362,-1.846,-1.8507,-1.8526,-1.8289,-1.8288,-1.8287,-1.8287,0,0,-1.7605,-1.7716,-1.7739,-1.7785,-1.787,-1.7937,-1.8027,-1.8116,-1.8164,-1.8231,-1.8309,-1.8425,-1.8409,-1.846,-1.8476,-1.8537,-1.8645,-1.8511,-1.8514,-1.8537,-1.8793,-1.8809,-1.883,-1.8643,-1.8646,-1.8649,-1.8788,0,-1.7727,-1.7888,-1.7916,-1.8058,-1.8138,-1.8142,-1.8222,-1.8284,-1.8318,-1.8392,-1.843,-1.8513,-1.8484,-1.8515,-1.8576,-1.8619,-1.8697,-1.8609,-1.8718,-1.8722,-1.8702,-1.8854,-1.887,-1.8998,-1.8806,-1.8809,-1.8811,0,-1.789,-1.7965,-1.8115,-1.8194,-1.8229,-1.83,-1.8386,-1.8455,-1.8527,-1.8548,-1.8606,-1.8616,-1.8712,-1.8663,-1.8797,-1.8737,-1.8783,-1.8811,-1.8817,-1.883,-1.8774,-1.8874,-1.9039,-1.9059,-1.884,-1.8837,-1.8835,0,-1.7971,-1.8108,-1.8217,-1.8255,-1.8349,-1.84,-1.8441,-1.8509,-1.8562,-1.8637,-1.8672,-1.8756,-1.8803,-1.8869,-1.8902,-1.8863,-1.9036,-1.8988,-1.9058,-1.9057,-1.9096,-1.9093,-1.9273,-1.9121,-1.912,-1.912,-1.9119,0,-1.8106,-1.8199,-1.8256,-1.8323,-1.8428,-1.8459,-1.8562,-1.8602,-1.8664,-1.874,-1.8747,-1.8819,-1.8857,-1.8935,-1.8961,-1.907,-1.909,-1.9112,-1.9118,-1.9113,-1.9111,-1.9145,-1.9138,-1.9125,-1.9124,-1.9123,-1.9122,0,-1.8215,-1.8256,-1.8376,-1.8456,-1.8478,-1.8552,-1.8621,-1.8688,-1.8723,-1.8819,-1.8844,-1.8899,-1.8991,-1.9031,-1.9143,-1.9161,-1.9287,-1.9285,-1.9264,-1.9267,-1.9336,-1.933,-1.9546,-1.9578,-1.9401,-1.9403,-1.9404,0,-1.8299,-1.8371,-1.846,-1.8513,-1.8556,-1.8639,-1.8694,-1.8728,-1.8785,-1.8874,-1.8931,-1.9023,-1.9099,-1.9246,-1.9297,-1.9384,-1.9386,-1.9456,-1.9399,-1.9393,-1.9392,-1.9388,-1.9397,-1.9467,-1.9469,-1.947,-1.9472,0,-1.8446,-1.8464,-1.8543,-1.8631,-1.8697,-1.8767,-1.8836,-1.8878,-1.8923,-1.8987,-1.9082,-1.9141,-1.9258,-1.9351,-1.9442,-1.9485,-1.9488,-1.9489,-1.9511,-1.9507,-1.9493,-1.9505,-1.9296,-1.9484,-1.9483,-1.9482,-1.9481,-1.9481,-1.8548,-1.8614,-1.8688,-1.8777,-1.8833,-1.8898,-1.8965,-1.901,-1.909,-1.9189,-1.9204,-1.9306,-1.9379,-1.9502,-1.9549,-1.963,-1.9613,-1.9643,-1.9651,-1.9659,-1.9665,-1.9478,-1.9646,-1.9646,-1.9646,-1.9646,-1.9645,0,-1.8698,-1.8747,-1.8829,-1.8926,-1.8997,-1.8993,-1.907,-1.913,-1.922,-1.9288,-1.9364,-1.9475,-1.9566,-1.9625,-1.9717,-1.9771,-1.9775,-1.9795,-1.9792,-1.9803,-1.9673,-1.9648,-1.9791,-1.9791,-1.9791,-1.9791,-1.9791,-1.9791,-1.8785,-1.8898,-1.8925,-1.9066,-1.9114,-1.9216,-1.9261,-1.9322,-1.9377,-1.9501,-1.9577,-1.9615,-1.9681,-1.9778,-1.9863,-1.9878,-1.9913,-1.9934,-1.9949,-1.9827,-1.9812,-1.9797,-1.9773,-1.9941,-1.9941,-2.0072,-2.0073,-2.0074]},{"header":{"parameterUnit":"m.s-1","parameterCategory":1,"la1":30.2991,"la2":30.254,"lo1":-89.0895,"lo2":-89.0444,"dy":0.0017,"dx":0.0017,"nx":28,"ny":28,"refTime":"2024-10-20T09:00:00:Z","depth":0,"parameterNumber":3,"parameterNumberName":"V-component_of_WINDS"},"data":[0,0,0,0,0,0,0,0,0,0,0,0,0,0,0,0,0,0,0,0,0,0,0,0,0,0,0,0,0,0,0,0,0,0,0,0,0,0,0,0,0,0,0,0,0,0,0,0,0,0,0,0,0,0,0,0,0,0,-1.7599,-1.7599,0,-1.7587,-1.7586,-1.7586,-1.7565,-1.7565,-1.7564,-1.7564,-1.7551,-1.7551,-1.7551,0,0,0,0,0,0,0,0,0,0,0,0,0,-1.7604,-1.7604,-1.7599,-1.7599,-1.7599,-1.7587,-1.7586,-1.7586,-1.7565,-1.7565,-1.7564,-1.7564,-1.7551,-1.7551,-1.7551,0,0,0,0,0,0,0,0,0,0,0,0,0,-1.7598,-1.7604,-1.7599,-1.7587,-1.7586,-1.7587,-1.7586,-1.7586,-1.7565,-1.7565,-1.7564,-1.7564,-1.7551,-1.7551,-1.7551,-1.7563,0,0,-1.7551,-1.7551,0,0,0,0,0,0,0,0,-1.7598,-1.7597,-1.7589,-1.7588,-1.7586,-1.7577,-1.7583,-1.7578,-1.7565,-1.7573,-1.7564,-1.7563,-1.756,-1.7559,-1.7558,-1.7562,-1.7561,-1.7551,-1.7551,-1.7551,-1.7551,0,0,0,0,0,0,0,-1.7598,-1.7598,-1.7594,-1.7589,-1.7587,-1.7582,-1.758,-1.7582,-1.757,-1.7572,-1.7571,-1.757,-1.7559,-1.7558,-1.7558,-1.7561,-1.7551,-1.7551,-1.7551,-1.7551,-1.7572,-1.7573,0,0,0,0,0,0,-1.7601,-1.7598,-1.7595,-1.7594,-1.7591,-1.7582,-1.758,-1.758,-1.757,-1.7568,-1.757,-1.7569,-1.7558,-1.7558,-1.7557,-1.7569,-1.7551,-1.7551,-1.7551,-1.7572,-1.7572,-1.7573,0,0,0,0,0,0,-1.7601,-1.7601,-1.7595,-1.7596,-1.7594,-1.7582,-1.7583,-1.7581,-1.7579,-1.7568,-1.7566,-1.7571,-1.7558,-1.7557,-1.7561,-1.7568,-1.7551,-1.7551,-1.7571,-1.7572,-1.7573,-1.7594,0,0,0,0,0,0,-1.7601,-1.7601,-1.7606,-1.7596,-1.7595,-1.76,-1.7583,-1.7581,-1.758,-1.7578,-1.7569,-1.7567,-1.7557,-1.7561,-1.7561,-1.7568,-1.7551,-1.757,-1.7571,-1.7572,-1.7592,-1.7595,-1.7598,0,0,0,0,0,-1.7601,-1.7613,-1.7606,-1.7606,-1.76,-1.76,-1.76,-1.7589,-1.758,-1.7585,-1.7577,-1.7567,-1.7567,-1.7562,-1.7561,-1.7569,-1.757,-1.7571,-1.7572,-1.7591,-1.7595,-1.7598,0,0,0,0,0,0,-1.7624,-1.7611,-1.7604,-1.7612,-1.7607,-1.7597,-1.7602,-1.7593,-1.759,-1.7589,-1.7575,-1.7573,-1.7579,-1.7574,-1.7568,-1.7578,-1.7567,-1.7568,-1.7581,-1.7585,-1.7587,-1.7588,-1.7551,0,0,0,0,0,-1.763,-1.7631,-1.762,-1.7628,-1.7626,-1.7615,-1.7614,-1.7606,-1.76,-1.7598,-1.7591,-1.7586,-1.7585,-1.7584,-1.7583,-1.7591,-1.7589,-1.7596,-1.7599,-1.7601,-1.7602,-1.7605,-1.7608,-1.7577,-1.7577,-1.7577,0,0,-1.7642,-1.7635,-1.7637,-1.7632,-1.7628,-1.7629,-1.7613,-1.7615,-1.7616,-1.7599,-1.7602,-1.7596,-1.7589,-1.7595,-1.7598,-1.7592,-1.761,-1.7603,-1.7604,-1.7604,-1.7607,-1.7609,-1.7612,-1.7578,-1.7578,-1.7578,0,0,-1.7665,-1.766,-1.7666,-1.7662,-1.7655,-1.7646,-1.7648,-1.7638,-1.7634,-1.7636,-1.7623,-1.7623,-1.7622,-1.7617,-1.7615,-1.7634,-1.7624,-1.7633,-1.7647,-1.765,-1.7653,-1.7655,-1.7661,-1.7663,-1.7635,-1.7635,-1.7635,0,-1.7682,-1.7683,-1.7671,-1.7673,-1.7671,-1.7655,-1.766,-1.7656,-1.7649,-1.7648,-1.7641,-1.7638,-1.7632,-1.7636,-1.764,-1.7639,-1.764,-1.7635,-1.7653,-1.7655,-1.7657,-1.7662,-1.7665,-1.7636,-1.7636,-1.7636,-1.7635,0,-1.7703,-1.7704,-1.7709,-1.7702,-1.77,-1.7705,-1.7692,-1.7692,-1.7683,-1.7675,-1.7677,-1.767,-1.7666,-1.7666,-1.7658,-1.7668,-1.7665,-1.7656,-1.7644,-1.7661,-1.7666,-1.7668,-1.7638,-1.7637,-1.7637,-1.7636,0,0,-1.7741,-1.7726,-1.7728,-1.7724,-1.7714,-1.7714,-1.7717,-1.7712,-1.7712,-1.7707,-1.7708,-1.7706,-1.7697,-1.7694,-1.7685,-1.7688,-1.7702,-1.7678,-1.7678,-1.7683,-1.7712,-1.7718,-1.7721,-1.7695,-1.7696,-1.7696,-1.7712,0,-1.7762,-1.7766,-1.7754,-1.776,-1.776,-1.7744,-1.7746,-1.774,-1.7732,-1.773,-1.7722,-1.772,-1.7709,-1.7707,-1.7709,-1.77,-1.7708,-1.7699,-1.7696,-1.7696,-1.7698,-1.7724,-1.7731,-1.7747,-1.7714,-1.7714,-1.7714,0,-1.7787,-1.7783,-1.7789,-1.7777,-1.7777,-1.7779,-1.7773,-1.7772,-1.7764,-1.7758,-1.7754,-1.7743,-1.7743,-1.7732,-1.7732,-1.7726,-1.7724,-1.7719,-1.7719,-1.7719,-1.7706,-1.7723,-1.7752,-1.7754,-1.7718,-1.7717,-1.7717,0,-1.7814,-1.7809,-1.7812,-1.7809,-1.7796,-1.7797,-1.7792,-1.7783,-1.778,-1.7775,-1.7773,-1.7768,-1.7765,-1.7761,-1.7749,-1.7741,-1.775,-1.7737,-1.7744,-1.7745,-1.7747,-1.7747,-1.7775,-1.7746,-1.7746,-1.7746,-1.7746,0,-1.7838,-1.7843,-1.7824,-1.7826,-1.783,-1.7815,-1.7819,-1.7812,-1.7804,-1.7803,-1.7789,-1.7788,-1.7772,-1.777,-1.776,-1.7761,-1.776,-1.7755,-1.7752,-1.7756,-1.7757,-1.7754,-1.7753,-1.7747,-1.7746,-1.7746,-1.7746,0,-1.7869,-1.7857,-1.7859,-1.7845,-1.7842,-1.7845,-1.7833,-1.7834,-1.7824,-1.7824,-1.7823,-1.7808,-1.7804,-1.7791,-1.7785,-1.7778,-1.7782,-1.7777,-1.7784,-1.7783,-1.779,-1.7789,-1.7818,-1.782,-1.779,-1.779,-1.779,0,-1.7886,-1.7889,-1.7875,-1.7873,-1.7868,-1.7866,-1.7863,-1.7848,-1.7846,-1.7835,-1.7837,-1.7832,-1.7827,-1.7821,-1.781,-1.7804,-1.7799,-1.7809,-1.7798,-1.7801,-1.7798,-1.7798,-1.7798,-1.7812,-1.7812,-1.7812,-1.7813,0,-1.7917,-1.791,-1.7906,-1.79,-1.7897,-1.7891,-1.7885,-1.7884,-1.7867,-1.7865,-1.786,-1.7856,-1.7849,-1.7843,-1.7835,-1.7829,-1.7818,-1.7816,-1.7817,-1.7821,-1.7826,-1.7823,-1.7791,-1.7816,-1.7815,-1.7815,-1.7815,-1.7815,-1.7941,-1.7942,-1.7932,-1.7928,-1.7921,-1.7915,-1.7914,-1.7904,-1.79,-1.7893,-1.7884,-1.788,-1.787,-1.7858,-1.7852,-1.7848,-1.7843,-1.7845,-1.7845,-1.7846,-1.7847,-1.7826,-1.7847,-1.7847,-1.7847,-1.7847,-1.7847,0,-1.797,-1.7963,-1.7959,-1.795,-1.7946,-1.7935,-1.7927,-1.7924,-1.7921,-1.7913,-1.7908,-1.7902,-1.7896,-1.7884,-1.7876,-1.7876,-1.787,-1.7875,-1.7874,-1.7873,-1.7853,-1.7853,-1.7879,-1.7879,-1.7879,-1.7879,-1.7879,-1.7879,-1.7986,-1.7987,-1.7978,-1.7975,-1.7967,-1.7963,-1.7959,-1.7953,-1.7946,-1.794,-1.7935,-1.7926,-1.7915,-1.7907,-1.7901,-1.7897,-1.7895,-1.7901,-1.7896,-1.7878,-1.7874,-1.7872,-1.7871,-1.7901,-1.7901,-1.7915,-1.7915,-1.7916]}]]